CW9236 Weather Reports


Display with metric or nautical units.
time (UTC)temp
F
wind
direction
speed
MPH
gust
MPH
rain 1hr
in
rain 24hr
in
rain mn
in
humidity
%
barometer
mb
20260506224012 84 285 1.0 3.0 0.00 0.00 0.00 78 1008.7
20260506223507 84 285 1.0 3.0 0.00 0.00 0.00 79 1008.6
20260506223021 84 285 1.0 3.0 0.00 0.00 0.00 78 1008.7
20260506222509 84 273 1.0 6.0 0.00 0.00 0.00 78 1008.7
20260506222009 84 273 2.0 6.0 0.00 0.00 0.00 78 1008.6
20260506221525 85 272 0.0 3.0 0.00 0.00 0.00 78 1008.6
20260506221010 85 272 0.0 3.0 0.00 0.00 0.00 78 1008.6
20260506220507 84 272 0.0 2.0 0.00 0.00 0.00 78 1008.5
20260506220015 84 272 0.0 2.0 0.00 0.00 0.00 78 1008.6
20260506215506 85 272 0.0 2.0 0.00 0.00 0.00 78 1008.5
20260506215007 85 272 0.0 2.0 0.00 0.00 0.00 76 1008.6
20260506214520 85 272 0.0 2.0 0.00 0.00 0.00 77 1008.6
20260506214012 85 272 0.0 2.0 0.00 0.00 0.00 78 1008.6
20260506213512 85 272 0.0 2.0 0.00 0.00 0.00 80 1008.6
20260506213025 84 272 0.0 2.0 0.00 0.00 0.00 80 1008.7
20260506212507 83 272 0.0 0.0 0.00 0.00 0.00 80 1008.7
20260506212007 83 272 0.0 1.0 0.00 0.00 0.00 81 1008.7
20260506211525 83 272 0.0 1.0 0.00 0.00 0.00 80 1008.7
20260506211007 83 272 0.0 1.0 0.00 0.00 0.00 80 1008.7
20260506210510 83 272 0.0 2.0 0.00 0.00 0.00 80 1008.7
20260506210017 83 272 0.0 2.0 0.00 0.00 0.00 80 1008.7
20260506205506 84 272 0.0 3.0 0.00 0.00 0.00 81 1008.7
20260506205011 83 272 0.0 3.0 0.00 0.00 0.00 78 1008.7
20260506204526 83 272 0.0 6.0 0.00 0.00 0.00 79 1008.7
20260506204010 83 272 0.0 6.0 0.00 0.00 0.00 79 1008.8
20260506203510 83 271 1.0 6.0 0.00 0.00 0.00 79 1009.0
20260506203028 84 271 0.0 3.0 0.00 0.00 0.00 77 1009.0
20260506202510 84 272 0.0 1.0 0.00 0.00 0.00 78 1009.1
20260506202010 84 272 0.0 2.0 0.00 0.00 0.00 79 1009.2
20260506201515 83 272 0.0 4.0 0.00 0.00 0.00 78 1009.2
20260506201006 83 272 0.0 4.0 0.00 0.00 0.00 77 1009.2
20260506200509 84 253 0.0 1.0 0.00 0.00 0.00 76 1009.2
20260506200018 84 253 0.0 2.0 0.00 0.00 0.00 76 1009.2
20260506195502 84 253 0.0 2.0 0.00 0.00 0.00 77 1009.3
20260506195002 84 77 0.0 4.0 0.00 0.00 0.00 76 1009.3
20260506194004 83 56 1.0 4.0 0.00 0.00 0.00 77 1009.4
20260506193502 83 77 1.0 2.0 0.00 0.00 0.00 77 1009.2
20260506193008 84 67 0.0 5.0 0.00 0.00 0.00 77 1009.3
20260506192506 84 94 2.0 5.0 0.00 0.00 0.00 77 1009.4
20260506192006 84 75 0.0 4.0 0.00 0.00 0.00 76 1009.4
20260506191518 84 82 1.0 3.0 0.00 0.00 0.00 76 1009.5
20260506190022 83 80 1.0 4.0 0.00 0.00 0.00 80 1009.7
20260506185503 83 254 1.0 3.0 0.00 0.00 0.00 78 1009.8
20260506183011 83 254 1.0 2.0 0.00 0.00 0.00 79 1010.0
20260506182010 82 254 0.0 4.0 0.00 0.00 0.00 80 1010.2
20260506181519 82 268 1.0 3.0 0.00 0.00 0.00 80 1010.3
20260506180006 82 268 0.0 3.0 0.00 0.00 0.00 83 1010.7
20260506175504 81 266 0.0 3.0 0.00 0.00 0.00 83 1010.8
20260506175002 81 266 0.0 3.0 0.00 0.00 0.00 83 1011.0
20260506174007 80 74 0.0 2.0 0.00 0.00 0.00 84 1011.1
20260506173504 80 69 0.0 2.0 0.00 0.00 0.00 84 1011.3
20260506172507 80 69 0.0 2.0 0.00 0.00 0.00 84 1011.3
20260506172011 80 76 0.0 3.0 0.00 0.00 0.00 85 1011.4
20260506171521 80 92 1.0 4.0 0.00 0.00 0.00 85 1011.3
20260506171009 80 66 0.0 4.0 0.00 0.00 0.00 84 1011.4
20260506170512 80 85 1.0 3.0 0.00 0.00 0.00 82 1011.3
20260506170009 80 83 1.0 3.0 0.00 0.00 0.00 82 1011.4
20260506165503 80 48 1.0 3.0 0.00 0.00 0.00 81 1011.4
20260506165005 81 284 1.0 3.0 0.00 0.00 0.00 81 1011.4
20260506164512 81 64 1.0 4.0 0.00 0.00 0.00 80 1011.3
20260506164007 81 57 1.0 4.0 0.00 0.00 0.00 81 1011.3
20260506163506 80 76 1.0 3.0 0.00 0.00 0.00 82 1011.2
20260506163014 80 77 1.0 3.0 0.00 0.00 0.00 83 1011.2
20260506162510 80 82 1.0 3.0 0.00 0.00 0.00 83 1011.3
20260506162012 80 78 0.0 2.0 0.00 0.00 0.00 83 1011.2
20260506161523 80 71 0.0 3.0 0.00 0.00 0.00 82 1011.1
20260506161013 80 83 0.0 3.0 0.00 0.00 0.00 84 1010.9
20260506160509 80 88 1.0 3.0 0.00 0.00 0.00 84 1010.7
20260506160007 79 78 0.0 2.0 0.00 0.00 0.00 84 1010.8
20260506155504 80 87 0.0 2.0 0.00 0.00 0.00 84 1010.9
20260506155007 79 74 0.0 2.0 0.00 0.00 0.00 84 1010.8
20260506154514 79 76 0.0 2.0 0.00 0.00 0.00 84 1010.8
20260506154006 79 328 0.0 2.0 0.00 0.00 0.00 85 1010.8
20260506153507 79 68 0.0 2.0 0.00 0.00 0.00 85 1010.8
20260506153020 79 82 0.0 2.0 0.00 0.00 0.00 85 1010.8
20260506152506 79 82 0.0 4.0 0.00 0.00 0.00 85 1010.8
20260506152008 79 88 0.0 4.0 0.00 0.00 0.00 85 1010.7
20260506151523 79 87 0.0 2.0 0.00 0.00 0.00 85 1010.7
20260506151008 79 82 0.0 2.0 0.00 0.00 0.00 85 1010.5
20260506150505 79 63 0.0 2.0 0.00 0.00 0.00 85 1010.4
20260506150008 79 72 0.0 2.0 0.00 0.00 0.00 86 1010.3
20260506145504 79 62 0.0 6.0 0.00 0.00 0.00 86 1010.3
20260506145003 79 84 1.0 6.0 0.00 0.00 0.00 86 1010.3
20260506144532 79 67 1.0 3.0 0.00 0.00 0.00 87 1010.1
20260506144007 78 88 1.0 5.0 0.00 0.00 0.00 87 1010.0
20260506143509 78 90 0.0 5.0 0.00 0.00 0.00 88 1010.0
20260506143020 78 82 1.0 4.0 0.00 0.00 0.00 88 1009.9
20260506142514 78 88 1.0 3.0 0.00 0.00 0.00 89 1009.9
20260506141524 78 84 1.0 3.0 0.00 0.00 0.00 90 1009.8
20260506141009 77 76 1.0 3.0 0.00 0.00 0.00 92 1009.8
20260506140504 77 81 0.0 3.0 0.00 0.00 0.00 92 1009.8
20260506140010 77 65 0.0 3.0 0.00 0.00 0.00 92 1010.0
20260506135504 76 86 0.0 3.0 0.00 0.00 0.00 93 1010.1
20260506133509 76 74 0.0 3.0 0.00 0.00 0.00 93 1010.0
20260506133020 76 82 0.0 2.0 0.00 0.00 0.00 93 1010.0
20260506132511 76 81 0.0 2.0 0.00 0.00 0.00 93 1010.0
20260506132009 75 79 0.0 3.0 0.00 0.00 0.00 93 1010.1
20260506131535 75 63 0.0 3.0 0.00 0.00 0.00 93 1010.3
20260506131008 75 68 1.0 3.0 0.00 0.00 0.00 94 1010.3
20260506130010 75 267 1.0 3.0 0.00 0.00 0.00 93 1010.2
20260506125506 75 84 0.0 3.0 0.00 0.00 0.00 93 1010.2
20260506125008 75 86 1.0 3.0 0.00 0.00 0.00 93 1010.2
20260506124519 75 92 0.0 3.0 0.00 0.00 0.00 94 1010.1
20260506124009 75 93 0.0 2.0 0.00 0.00 0.00 94 1010.0
20260506123509 75 284 0.0 2.0 0.00 0.00 0.00 94 1010.0
20260506123035 75 88 0.0 2.0 0.00 0.00 0.00 94 1010.0
20260506122511 74 106 0.0 1.0 0.00 0.00 0.00 93 1010.0
20260506122009 74 134 0.0 1.0 0.00 0.00 0.00 93 1010.0
20260506121527 74 134 0.0 1.0 0.00 0.00 0.00 93 1009.9
20260506121004 74 138 0.0 1.0 0.00 0.00 0.00 93 1009.8
20260506120507 74 165 0.0 1.0 0.00 0.00 0.00 93 1009.9
20260506120023 74 196 0.0 1.0 0.00 0.00 0.00 93 1009.9
20260506115514 74 94 0.0 1.0 0.00 0.00 0.00 93 1009.7
20260506115012 74 63 0.0 1.0 0.00 0.00 0.00 93 1009.6
20260506114521 74 63 0.0 0.0 0.00 0.00 0.00 93 1009.6
20260506114012 74 63 0.0 1.0 0.00 0.00 0.00 93 1009.6
20260506113511 74 63 0.0 1.0 0.00 0.00 0.00 93 1009.6
20260506113028 74 63 0.0 1.0 0.00 0.00 0.00 93 1009.5
20260506112508 74 63 0.0 1.0 0.00 0.00 0.00 93 1009.4
20260506112010 74 63 0.0 2.0 0.00 0.00 0.00 93 1009.5
20260506111506 74 63 0.0 4.0 0.00 0.00 0.00 93 1009.4
20260506111008 74 74 0.0 4.0 0.00 0.00 0.00 93 1009.2
20260506110509 74 294 0.0 2.0 0.00 0.00 0.00 93 1009.0
20260506110007 74 76 0.0 2.0 0.00 0.00 0.00 93 1008.9
20260506105502 74 84 1.0 2.0 0.00 0.00 0.00 93 1009.0
20260506105004 74 70 0.0 2.0 0.00 0.00 0.00 93 1009.0
20260506104504 74 83 1.0 3.0 0.00 0.00 0.00 93 1008.8
20260506104003 74 43 0.0 4.0 0.00 0.00 0.00 92 1008.8
20260506103504 74 54 1.0 4.0 0.00 0.00 0.00 92 1008.8
20260506103008 74 80 1.0 3.0 0.00 0.00 0.00 92 1008.8
20260506102506 74 71 1.0 3.0 0.00 0.00 0.00 92 1008.8
20260506102005 74 82 0.0 3.0 0.00 0.00 0.00 92 1008.8
20260506101508 75 75 1.0 3.0 0.00 0.00 0.00 91 1008.9
20260506101004 75 78 0.0 3.0 0.00 0.00 0.00 90 1008.9
20260506100505 75 73 0.0 4.0 0.00 0.00 0.00 90 1009.0
20260506100017 75 92 1.0 4.0 0.00 0.00 0.00 90 1009.0
20260506095503 75 90 0.0 4.0 0.00 0.00 0.00 89 1008.8
20260506095003 76 71 0.0 3.0 0.00 0.00 0.00 89 1008.8
20260506094508 76 100 1.0 4.0 0.00 0.00 0.00 89 1008.7
20260506094004 76 86 1.0 4.0 0.00 0.00 0.00 89 1008.6
20260506093507 76 49 1.0 5.0 0.00 0.00 0.00 89 1008.5
20260506093010 76 64 2.0 5.0 0.00 0.00 0.00 89 1008.5
20260506092504 76 63 1.0 5.0 0.00 0.00 0.00 89 1008.4
20260506092004 76 91 2.0 4.0 0.00 0.00 0.00 89 1008.4
20260506091512 76 60 1.0 4.0 0.00 0.00 0.00 89 1008.5
20260506091010 76 53 1.0 6.0 0.00 0.00 0.00 89 1008.5
20260506090506 76 69 2.0 6.0 0.00 0.00 0.00 89 1008.4
20260506090004 76 59 1.0 4.0 0.00 0.00 0.00 89 1008.4
20260506085508 76 90 1.0 3.0 0.00 0.00 0.00 89 1008.6
20260506085004 76 70 1.0 4.0 0.00 0.00 0.00 89 1008.6
20260506084508 76 92 1.0 4.0 0.00 0.00 0.00 89 1008.7
20260506084004 76 76 0.0 4.0 0.00 0.00 0.00 89 1008.7
20260506083504 76 67 1.0 4.0 0.00 0.00 0.00 89 1008.7
20260506082508 76 83 1.0 4.0 0.00 0.00 0.00 89 1008.8
20260506082009 76 71 1.0 4.0 0.00 0.00 0.00 89 1008.8
20260506081515 76 76 1.0 3.0 0.00 0.00 0.00 89 1008.9
20260506081007 76 67 1.0 3.0 0.00 0.00 0.00 89 1008.9
20260506080504 76 70 0.0 3.0 0.00 0.00 0.00 89 1009.1
20260506073507 76 88 1.0 4.0 0.00 0.00 0.00 89 1009.2
20260506073013 76 70 1.0 3.0 0.00 0.00 0.00 89 1009.4
20260506072509 76 66 0.0 3.0 0.00 0.00 0.00 89 1009.5
20260506072008 76 69 0.0 3.0 0.00 0.00 0.00 89 1009.4
20260506071005 76 84 1.0 3.0 0.00 0.00 0.00 88 1009.5
20260506070507 76 84 1.0 3.0 0.00 0.00 0.00 89 1009.5
20260506062009 76 69 0.0 3.0 0.00 0.00 0.00 89 1009.7
20260506061514 76 76 1.0 5.0 0.00 0.00 0.00 89 1009.8
20260506060505 76 88 2.0 4.0 0.00 0.00 0.00 88 1009.8
20260506051008 77 72 1.0 4.0 0.00 0.00 0.00 87 1009.8
20260506050507 77 73 0.0 4.0 0.00 0.00 0.00 87 1009.9
20260506045004 77 69 2.0 5.0 0.00 0.00 0.00 86 1009.7
20260506044516 77 65 1.0 5.0 0.00 0.00 0.00 86 1009.6
20260506044007 77 80 2.0 5.0 0.00 0.00 0.00 86 1009.4
20260506043510 77 66 2.0 5.0 0.00 0.00 0.00 86 1009.5
20260506043021 77 325 0.0 3.0 0.00 0.00 0.00 85 1009.7
20260506042508 77 80 1.0 3.0 0.00 0.00 0.00 85 1009.8
20260506042013 77 96 0.0 5.0 0.00 0.00 0.00 85 1009.8
20260506041519 78 75 1.0 5.0 0.00 0.00 0.00 84 1009.7
20260506041007 78 74 2.0 4.0 0.00 0.00 0.00 84 1009.6
20260506040505 78 76 1.0 5.0 0.00 0.00 0.00 84 1009.6
20260506040012 78 60 1.0 5.0 0.00 0.00 0.00 84 1009.5
20260506035504 78 74 1.0 5.0 0.00 0.00 0.00 84 1009.5
20260506035009 78 65 1.0 6.0 0.00 0.00 0.00 84 1009.3
20260506034518 78 68 2.0 6.0 0.00 0.00 0.00 84 1009.2
20260506034008 78 69 1.0 5.0 0.00 0.00 0.00 84 1009.2
20260506033514 78 76 1.0 4.0 0.00 0.00 0.00 84 1009.3
20260506033025 78 88 2.0 4.0 0.00 0.00 0.00 84 1009.3
20260506032506 78 55 1.0 4.0 0.00 0.00 0.00 84 1009.3
20260506032009 78 76 1.0 7.0 0.00 0.00 0.00 84 1009.2
20260506031532 78 69 1.0 7.0 0.00 0.00 0.00 83 1009.1
20260506031006 78 63 1.0 7.0 0.00 0.00 0.00 83 1009.0
20260506030503 78 69 2.0 7.0 0.00 0.00 0.00 83 1008.9
20260506024527 78 113 3.0 7.0 0.00 0.00 0.00 83 1008.8
20260506024008 78 59 1.0 7.0 0.00 0.00 0.00 82 1008.7
20260506023508 78 69 2.0 6.0 0.00 0.00 0.00 82 1008.6
20260506023020 78 88 1.0 6.0 0.00 0.00 0.00 82 1008.5
20260506022509 78 74 2.0 8.0 0.00 0.00 0.00 81 1008.4
20260506022009 79 82 3.0 8.0 0.00 0.00 0.00 81 1008.5
20260506021519 79 63 2.0 6.0 0.00 0.00 0.00 81 1008.3
20260506021006 79 67 2.0 4.0 0.00 0.00 0.00 81 1008.3
20260506020506 79 53 0.0 4.0 0.00 0.00 0.00 81 1008.2
20260506020016 79 56 1.0 4.0 0.00 0.00 0.00 80 1008.2
20260506015510 79 80 1.0 4.0 0.00 0.00 0.00 80 1008.1
20260506015007 79 68 1.0 4.0 0.00 0.00 0.00 80 1008.1
20260506014519 79 76 2.0 4.0 0.00 0.00 0.00 80 1008.1
20260506014008 79 65 0.0 6.0 0.00 0.00 0.00 79 1008.1
20260506013023 79 63 1.0 5.0 0.00 0.00 0.00 79 1008.0
20260506012508 79 87 1.0 5.0 0.00 0.00 0.00 79 1008.0
20260506012010 79 37 2.0 5.0 0.00 0.00 0.00 79 1007.8
20260506011515 79 72 2.0 5.0 0.00 0.00 0.00 78 1007.6
20260506011003 79 88 1.0 4.0 0.00 0.00 0.00 78 1007.6
20260506010511 80 65 1.0 4.0 0.00 0.00 0.00 77 1007.5
20260506010043 80 59 2.0 6.0 0.00 0.00 0.00 77 1007.3
20260506005509 80 92 2.0 6.0 0.00 0.00 0.00 77 1007.4
20260506005006 80 78 1.0 6.0 0.00 0.00 0.00 76 1007.3
20260506004522 80 60 1.0 5.0 0.00 0.00 0.00 76 1007.3
20260506004010 80 69 2.0 5.0 0.00 0.00 0.00 76 1007.2
20260506003502 80 74 1.0 5.0 0.00 0.00 0.00 76 1007.2
20260506003008 80 61 1.0 4.0 0.00 0.00 0.00 76 1007.2
20260506002504 80 88 1.0 5.0 0.00 0.00 0.00 77 1007.2
20260506002005 80 64 1.0 5.0 0.00 0.00 0.00 76 1007.1
20260506001513 80 65 1.0 5.0 0.00 0.00 0.00 76 1007.1
20260506001006 81 68 2.0 5.0 0.00 0.00 0.00 76 1007.1
20260506000508 81 67 2.0 7.0 0.00 0.00 0.00 76 1007.1
20260506000020 81 72 2.0 7.0 0.00 0.00 0.00 76 1007.2
20260505235508 81 72 2.0 9.0 0.00 0.00 0.00 75 1007.2
20260505235011 81 68 2.0 9.0 0.00 0.00 0.00 75 1007.2
20260505234522 81 94 4.0 8.0 0.00 0.00 0.00 75 1007.1
20260505234004 81 68 2.0 6.0 0.00 0.00 0.00 76 1007.0
20260505233504 81 76 2.0 5.0 0.00 0.00 0.00 76 1007.0
20260505233011 81 80 2.0 5.0 0.00 0.00 0.00 75 1007.1
20260505232507 81 86 2.0 5.0 0.00 0.00 0.00 76 1007.1
20260505232005 81 57 2.0 5.0 0.00 0.00 0.00 76 1007.1
20260505231518 82 55 2.0 5.0 0.00 0.00 0.00 75 1007.1
20260505231005 82 70 2.0 6.0 0.00 0.00 0.00 75 1007.1
20260505230506 82 56 2.0 7.0 0.00 0.00 0.00 75 1007.1
20260505230026 82 72 2.0 7.0 0.00 0.00 0.00 74 1007.2
20260505225510 82 74 2.0 6.0 0.00 0.00 0.00 74 1007.2
20260505225009 82 69 3.0 6.0 0.00 0.00 0.00 74 1007.2
20260505224522 82 32 2.0 8.0 0.00 0.00 0.00 74 1007.2